Location: Unspecified
(44.4377°N, 88.0525°W)
Time: 13:28:50
(UTC-06:00)

Cosmos 1674 - Visible Passes

Search period start: 22 December 2014 00:00
Search period end: 01 January 2015 00:00
Orbit: 510 x 538 km, 82.5° (Epoch: 22 December)

Date Brightness Start Highest point End Pass type
(mag) Time Alt. Az. Time Alt. Az. Time Alt. Az.
28 Dec 4.8 06:48:34 10° NNE 06:51:57 28° ENE 06:55:21 10° SE visible
29 Dec 5.0 06:36:15 10° NNE 06:39:30 25° ENE 06:42:46 10° SE visible
30 Dec 5.2 06:23:55 10° NNE 06:27:02 22° ENE 06:30:09 10° SE visible
31 Dec 5.3 06:11:35 10° NNE 06:14:32 20° ENE 06:17:29 10° ESE visible
